Location: Kapla
(46.2483°N, 15.0094°E)
Time: 15:07:58
(UTC+00:00)

Meteor 1-25 Rocket - Pass Details

Date: 03 March 2021
Orbit: 835 x 893 km, 81.2° (Epoch: 17 April)

Event Time Altitude Azimuth Distance (km) Brightness Sun altitude
Rises 17:29:40 0° 187° (S) 3,473 7.5 -7.8°
Reaches altitude 10° 17:32:07 10° 187° (S) 2,531 6.8 -8.2°
Maximum altitude 17:37:53 85° 99° (E) 881 4.3 -9.2°
Drops below altitude 10° 17:43:36 10° 12° (NNE) 2,511 6.6 -10.2°
Sets 17:46:01 0° 12° (NNE) 3,443 7.3 -10.6°
